Location: *
(44.3683°N, 6.6958°E)
Time: 18:20:45
(UTC+00:00)

SL-4 R/B - Pass Details

Date: 14 October 2019
Orbit: 429 x 667 km, 51.6° (Epoch: 12 November)

Event Time Altitude Azimuth Distance (km) Brightness Sun altitude
Rises 17:21:57 0° 300° (WNW) 2,680 6.5 -6.2°
Reaches altitude 10° 17:24:19 10° 306° (NW) 1,744 5.4 -6.6°
Maximum altitude 17:28:09 51° 23° (NNE) 617 2.1 -7.3°
Drops below altitude 10° 17:31:42 10° 101° (E) 1,615 3.8 -8.0°
Enters shadow 17:31:45 10° 101° (E) 1,636 3.8 -8.0°
